Weather History for Marathon, FL

Change the Weather History Date:

Thursday, November 24, 2011

  Actual Average Record
Temperature  
Mean Temperature 77 °F 75 °F  
Max Temperature 81 °F 80 °F 85 °F (2014)
Min Temperature 73 °F 70 °F 57 °F (2005)
Degree Days  
Heating Degree Days 0 0  
Month to date heating degree days 0 0  
Since 1 July heating degree days 0 0  
Cooling Degree Days 12 10  
Month to date cooling degree days 298 268  
Year to date cooling degree days 5077 4707  
Growing Degree Days 26 (Base 50)    
Moisture  
Dew Point 69 °F    
Average Humidity 74    
Maximum Humidity 87    
Minimum Humidity 60    
Precipitation  
Precipitation 0.00 in 0.08 in 0.20 in (2004)
Month to date precipitation 0.30 2.37  
Year to date precipitation 35.81 43.70  
Snow  
Snow 0.00 in - - ()
Month to date snowfall 0.0  
Since 1 July snowfall 0.0  
Since 1 September snowfall 0.0  
Snow Depth 0.00 in    
Sea Level Pressure  
Sea Level Pressure 30.08 in    
Wind  
Wind Speed 12 mph (NNE)    
Max Wind Speed 24 mph    
Max Gust Speed 30 mph    
Visibility 10 miles    
Events      
T = Trace of Precipitation, MM = Missing Value Source: NWS Daily Summary

Daily Weather History Graph

Daily Weather History Graph

Search for Another Location

Airport:

Trip Planner

Search our weather history database for the weather conditions in past years. The results will help you decide how hot, cold, wet, or windy it might be!

Date:

Astronomy

Nov. 24, 2011 Rise Set
Actual Time 6:46 AM EST 5:34 PM EST
Civil Twilight 6:22 AM EST 5:59 PM EST
Nautical Twilight 5:54 AM EST 6:27 PM EST
Astronomical Twilight 5:26 AM EST 6:54 PM EST
Moon 6:01 AM EST (11/24) 5:07 PM EST (11/24)
Length of Visible Light 11h 37m
Length of Day
10h 48m
Waning Crescent, 0% of the Moon is Illuminated
Nov 24
Waning Crescent
Nov 25
New
Dec 2
First Quarter
Dec 10
Full
Dec 17
Last Quarter

Hourly Weather History & Observations

Time (EST) Temp. Heat Index Dew Point Humidity Pressure Visibility Wind Dir Wind Speed Gust Speed Precip Events Conditions
12:53 AM 75.0 °F - 71.1 °F 87% 30.06 in 10.0 mi NW 4.6 mph - N/A   Clear
1:53 AM 75.0 °F - 71.1 °F 87% 30.05 in 10.0 mi NW 4.6 mph - N/A   Partly Cloudy
2:53 AM 75.0 °F - 71.1 °F 87% 30.04 in 10.0 mi NNW 5.8 mph - N/A   Clear
3:53 AM 75.0 °F - 71.1 °F 87% 30.04 in 10.0 mi NNW 6.9 mph - N/A   Partly Cloudy
4:53 AM 75.0 °F - 71.1 °F 87% 30.04 in 10.0 mi NNW 5.8 mph - N/A   Partly Cloudy
5:53 AM 75.9 °F - 72.0 °F 87% 30.05 in 10.0 mi NNE 8.1 mph - N/A   Mostly Cloudy
6:00 AM 75.2 °F - 71.6 °F 89% 30.06 in 10.0 mi NNE 11.5 mph - N/A   Mostly Cloudy
6:09 AM 73.4 °F - 69.8 °F 88% 30.06 in 10.0 mi NNE 10.4 mph - N/A   Mostly Cloudy
6:33 AM 73.4 °F - 69.8 °F 88% 30.07 in 10.0 mi North 9.2 mph - N/A   Scattered Clouds
6:53 AM 73.0 °F - 68.0 °F 84% 30.08 in 10.0 mi NNE 11.5 mph - N/A   Partly Cloudy
7:53 AM 73.0 °F - 66.9 °F 81% 30.10 in 10.0 mi NNE 11.5 mph - N/A   Mostly Cloudy
8:53 AM 75.9 °F - 68.0 °F 76% 30.11 in 10.0 mi NNE 12.7 mph - N/A   Partly Cloudy
9:53 AM 75.9 °F - 68.0 °F 76% 30.13 in 10.0 mi NE 11.5 mph - N/A   Scattered Clouds
10:53 AM 77.0 °F - 69.1 °F 76% 30.12 in 10.0 mi NNE 11.5 mph - N/A   Clear
11:53 AM 78.1 °F - 69.1 °F 74% 30.10 in 10.0 mi NNE 10.4 mph - N/A   Clear
12:53 PM 79.0 °F - 69.1 °F 72% 30.08 in 10.0 mi NNE 9.2 mph - N/A   Clear
1:53 PM 80.1 °F 82.9 °F 69.1 °F 69% 30.07 in 10.0 mi North 8.1 mph - N/A   Clear
2:53 PM 80.1 °F 82.9 °F 69.1 °F 69% 30.06 in 10.0 mi ENE 9.2 mph - N/A   Clear
3:53 PM 80.1 °F 83.2 °F 70.0 °F 71% 30.06 in 10.0 mi NE 8.1 mph - N/A   Clear
4:50 PM 78.8 °F - 69.8 °F 74% 30.07 in 10.0 mi ENE 10.4 mph - N/A   Mostly Cloudy
4:53 PM 78.1 °F - 69.1 °F 74% 30.07 in 10.0 mi ENE 11.5 mph - N/A   Mostly Cloudy
5:02 PM 78.8 °F - 69.8 °F 74% 30.07 in 10.0 mi ENE 6.9 mph 17.3 mph N/A   Overcast
5:53 PM 78.1 °F - 69.1 °F 74% 30.08 in 10.0 mi NE 17.3 mph 24.2 mph N/A   Overcast
6:53 PM 77.0 °F - 66.0 °F 69% 30.09 in 10.0 mi ENE 16.1 mph 24.2 mph N/A   Scattered Clouds
7:53 PM 77.0 °F - 63.0 °F 62% 30.11 in 10.0 mi NE 17.3 mph 24.2 mph N/A   Mostly Cloudy
8:53 PM 77.0 °F - 66.0 °F 69% 30.12 in 10.0 mi NE 18.4 mph 26.5 mph N/A   Mostly Cloudy
9:53 PM 77.0 °F - 64.9 °F 66% 30.13 in 10.0 mi NE 19.6 mph 26.5 mph N/A   Overcast
10:53 PM 75.9 °F - 64.0 °F 67% 30.13 in 10.0 mi ENE 19.6 mph 27.6 mph N/A   Partly Cloudy